Ashton, SD

12:18 PM CDT on October 23, 2014 (GMT -0500)
Aberdeen Regional | Change Station
CLOSE
Current Station
Airport
Location: Aberdeen,
Elevation: 1299 ft
Nearby Weather Stations

Elev 1299 ft 45.44 °N, 98.41 °W | Updated 25 minutes ago

Clear
Clear
56 °F
Feels Like 56 °F
N
9
Wind Variable Wind from South

Today
High -- | Low -- °F
--% Chance of Precip.
Yesterday
High -- | Low -- °F
Precip. -- in
8:00 AM 6:35 PM
Waning Crescent, 0% visible
Pressure 29.98 in
Visibility 10.0 miles
Clouds Clear
Dew Point 43 °F
Humidity 62%
Rainfall 0.00 in
Snow Depth Not available.
UV 3 out of 12
Pollen 1.00 out of 12
Air Quality Not available.
Flu Activity Sporadic
METAR KABR 231653Z AUTO 19008KT 10SM CLR 13/06 A2997 RMK AO2 SLP151 T01330061

More Conditions Fewer Conditions

Pressure 29.98 in
Visibility 10.0 miles
Clouds Clear
Dew Point 43 °F
Humidity 62%
Rainfall 0.00 in
Snow Depth Not available.
UV 3 out of 12
Pollen 1.00 out of 12
Air Quality Not available.
Flu Activity Sporadic
METAR KABR 231653Z AUTO 19008KT 10SM CLR 13/06 A2997 RMK AO2 SLP151 T01330061

More Conditions Fewer Conditions

10-Day Weather Forecast

Almanac

Astronomy

Oct. 23, 2014 Rise Set
Actual Time 8:00 AM CDT 6:35 PM CDT
Civil Twilight 7:30 AM CDT 7:05 PM CDT
Nautical Twilight 6:56 AM CDT 7:39 PM CDT
Astronomical Twilight 6:21 AM CDT 8:13 PM CDT
Moon 7:40 AM CDT 6:37 PM CDT
Length of Visible Light 11h 35m
Length of Day
10h 35m
Tomorrow will be 2m 56s shorter.
Waning Crescent, 0% of the Moon is Illuminated
Today
Waning Crescent
Oct 23
New
Oct 30
First Quarter
Nov 6
Full
Nov 14
Last Quarter

Today's Extremes

State Highs State Lows

Community

WunderPhotos

Upload Photos

1,764,316 photos uploaded!

WunderBlogs® & News

Nearby

Snow Depth

Station Depth Elevation
North Rapid Creek 1 in 6130 ft
Blind Park 0 in 6890 ft

Earthquake Activity

City Distance Mag. Time & Date
No recent earthquake activity has been reported nearby.
Minimum magnitude displayed is 2.5.

Coastal Water Temperatures

Place Temperature
No Stations Reporting

Nearby Weather Stations